| time (UTC) | temp F | wind direction | speed MPH | gust MPH | rain 1hr in | rain 24hr in | rain mn in | humidity % | barometer mb |
| 20260904144303 | 91 | 140 | 2.0 | 2.0 | 0.00 | 0.00 | 0.00 | 72 | 1008.1 |
| 20260904143758 | 89 | 163 | 0.0 | 1.0 | 0.00 | 0.00 | 0.00 | 75 | 1008.2 |
| 20260904143255 | 89 | 177 | 3.0 | 3.0 | 0.00 | 0.00 | 0.00 | 75 | 1008.2 |
| 20260904142751 | 89 | 201 | 2.0 | 2.0 | 0.00 | 0.00 | 0.00 | 77 | 1007.9 |
| 20260904142247 | 88 | 207 | 0.0 | 1.0 | 0.00 | 0.00 | 0.00 | 79 | 1008.0 |
| 20260904141746 | 88 | 197 | 1.0 | 2.0 | 0.00 | 0.00 | 0.00 | 80 | 1007.9 |
| 20260904141242 | 87 | 201 | 2.0 | 3.0 | 0.00 | 0.00 | 0.00 | 83 | 1008.0 |
| 20260904140737 | 87 | 198 | 2.0 | 3.0 | 0.00 | 0.00 | 0.00 | 84 | 1007.9 |
| 20260904140233 | 87 | 44 | 2.0 | 4.0 | 0.00 | 0.00 | 0.00 | 85 | 1007.8 |
| 20260904135731 | 86 | 193 | 4.0 | 4.0 | 0.00 | 0.00 | 0.00 | 85 | 1007.6 |
| 20260904135227 | 86 | 194 | 0.0 | 0.0 | 0.00 | 0.00 | 0.00 | 87 | 1007.6 |
| 20260904134723 | 86 | 188 | 3.0 | 4.0 | 0.00 | 0.00 | 0.00 | 88 | 1007.6 |
| 20260904134222 | 85 | 208 | 0.0 | 0.0 | 0.00 | 0.00 | 0.00 | 90 | 1007.7 |
| 20260904133717 | 85 | 216 | 1.0 | 1.0 | 0.00 | 0.00 | 0.00 | 90 | 1007.8 |
| 20260904133214 | 85 | 180 | 1.0 | 3.0 | 0.00 | 0.00 | 0.00 | 91 | 1007.7 |
| 20260904132712 | 84 | 216 | 0.0 | 0.0 | 0.00 | 0.00 | 0.00 | 92 | 1007.9 |
| 20260904132208 | 84 | 201 | 1.0 | 2.0 | 0.00 | 0.00 | 0.00 | 93 | 1007.8 |
| 20260904131707 | 83 | 205 | 1.0 | 2.0 | 0.00 | 0.00 | 0.00 | 93 | 1007.8 |
| 20260904131202 | 83 | 42 | 1.0 | 1.0 | 0.00 | 0.00 | 0.00 | 94 | 1007.5 |
| 20260904130657 | 83 | 193 | 0.0 | 0.0 | 0.00 | 0.00 | 0.00 | 94 | 1007.8 |
| 20260904130156 | 83 | 202 | 0.0 | 0.0 | 0.00 | 0.00 | 0.00 | 94 | 1007.6 |
| 20260904125653 | 83 | 224 | 1.0 | 2.0 | 0.00 | 0.00 | 0.00 | 94 | 1007.7 |
| 20260904125148 | 83 | 174 | 2.0 | 3.0 | 0.00 | 0.00 | 0.00 | 95 | 1007.8 |
| 20260904124643 | 82 | 227 | 0.0 | 0.0 | 0.00 | 0.00 | 0.00 | 95 | 1007.8 |
| 20260904124138 | 82 | 211 | 0.0 | 1.0 | 0.00 | 0.00 | 0.00 | 95 | 1007.9 |
| 20260904123633 | 82 | 217 | 0.0 | 0.0 | 0.00 | 0.00 | 0.00 | 96 | 1007.8 |
| 20260904123128 | 82 | 221 | 0.0 | 0.0 | 0.00 | 0.00 | 0.00 | 96 | 1007.8 |
| 20260904122623 | 82 | 215 | 0.0 | 0.0 | 0.00 | 0.00 | 0.00 | 96 | 1007.7 |
| 20260904122118 | 82 | 225 | 0.0 | 0.0 | 0.00 | 0.00 | 0.00 | 95 | 1007.6 |
| 20260904121614 | 82 | 215 | 0.0 | 0.0 | 0.00 | 0.00 | 0.00 | 95 | 1007.4 |
| 20260904121109 | 82 | 214 | 0.0 | 0.0 | 0.00 | 0.00 | 0.00 | 95 | 1007.4 |
| 20260904120605 | 82 | 196 | 1.0 | 2.0 | 0.00 | 0.00 | 0.00 | 95 | 1007.6 |
| 20260904115555 | 82 | 211 | 0.0 | 0.0 | 0.00 | 0.00 | 0.00 | 95 | 1007.3 |
| 20260904115050 | 82 | 217 | 0.0 | 0.0 | 0.00 | 0.00 | 0.00 | 95 | 1007.3 |
| 20260904114545 | 82 | 203 | 0.0 | 0.0 | 0.00 | 0.00 | 0.00 | 95 | 1007.6 |
| 20260904114044 | 82 | 226 | 0.0 | 0.0 | 0.00 | 0.00 | 0.00 | 95 | 1007.6 |
| 20260904113539 | 82 | 220 | 0.0 | 0.0 | 0.00 | 0.00 | 0.00 | 95 | 1007.2 |
| 20260904113038 | 82 | 218 | 0.0 | 0.0 | 0.00 | 0.00 | 0.00 | 95 | 1007.4 |
| 20260904112534 | 82 | 223 | 0.0 | 0.0 | 0.00 | 0.00 | 0.00 | 95 | 1007.2 |
| 20260904112030 | 82 | 201 | 0.0 | 1.0 | 0.00 | 0.00 | 0.00 | 94 | 1007.3 |
| 20260904111525 | 82 | 212 | 0.0 | 0.0 | 0.00 | 0.00 | 0.00 | 95 | 1007.1 |
| 20260904111020 | 82 | 217 | 0.0 | 0.0 | 0.00 | 0.00 | 0.00 | 94 | 1007.0 |
| 20260904110514 | 82 | 216 | 2.0 | 2.0 | 0.00 | 0.00 | 0.00 | 94 | 1006.9 |
| 20260904110010 | 82 | 205 | 0.0 | 0.0 | 0.00 | 0.00 | 0.00 | 94 | 1007.1 |
| 20260904105504 | 82 | 212 | 1.0 | 1.0 | 0.00 | 0.00 | 0.00 | 94 | 1007.0 |
| 20260904104959 | 82 | 203 | 0.0 | 1.0 | 0.00 | 0.00 | 0.00 | 94 | 1007.0 |
| 20260904104454 | 82 | 209 | 0.0 | 0.0 | 0.00 | 0.00 | 0.00 | 94 | 1007.1 |
| 20260904103950 | 82 | 210 | 0.0 | 0.0 | 0.00 | 0.00 | 0.00 | 94 | 1006.8 |
| 20260904103446 | 82 | 215 | 0.0 | 0.0 | 0.00 | 0.00 | 0.00 | 94 | 1007.0 |
| 20260904102942 | 82 | 209 | 0.0 | 1.0 | 0.00 | 0.00 | 0.00 | 94 | 1007.0 |
| 20260904102437 | 82 | 214 | 0.0 | 0.0 | 0.00 | 0.00 | 0.00 | 93 | 1007.0 |
| 20260904101932 | 82 | 202 | 1.0 | 1.0 | 0.00 | 0.00 | 0.00 | 93 | 1007.0 |
| 20260904101430 | 82 | 177 | 1.0 | 1.0 | 0.00 | 0.00 | 0.00 | 93 | 1007.2 |
| 20260904100925 | 82 | 190 | 0.0 | 0.0 | 0.00 | 0.00 | 0.00 | 94 | 1006.9 |
| 20260904100420 | 82 | 213 | 3.0 | 4.0 | 0.00 | 0.00 | 0.00 | 94 | 1007.1 |
| 20260904095914 | 82 | 198 | 2.0 | 2.0 | 0.00 | 0.00 | 0.00 | 94 | 1007.0 |
| 20260904095409 | 82 | 211 | 0.0 | 0.0 | 0.00 | 0.00 | 0.00 | 94 | 1006.9 |
| 20260904094904 | 82 | 203 | 0.0 | 1.0 | 0.00 | 0.00 | 0.00 | 94 | 1006.9 |
| 20260904094359 | 82 | 216 | 0.0 | 1.0 | 0.00 | 0.00 | 0.00 | 94 | 1006.9 |
| 20260904093856 | 82 | 220 | 0.0 | 0.0 | 0.00 | 0.00 | 0.00 | 93 | 1006.6 |
| 20260904093355 | 82 | 224 | 1.0 | 2.0 | 0.00 | 0.00 | 0.00 | 93 | 1006.9 |
| 20260904092851 | 82 | 198 | 2.0 | 3.0 | 0.00 | 0.00 | 0.00 | 94 | 1006.7 |
| 20260904092348 | 82 | 220 | 0.0 | 0.0 | 0.00 | 0.00 | 0.00 | 94 | 1006.9 |
| 20260904091843 | 82 | 213 | 0.0 | 0.0 | 0.00 | 0.00 | 0.00 | 94 | 1006.8 |
| 20260904091339 | 82 | 200 | 0.0 | 0.0 | 0.00 | 0.00 | 0.00 | 94 | 1006.9 |
| 20260904090833 | 82 | 219 | 0.0 | 0.0 | 0.00 | 0.00 | 0.00 | 94 | 1006.9 |
| 20260904090330 | 82 | 205 | 0.0 | 0.0 | 0.00 | 0.00 | 0.00 | 94 | 1007.0 |
| 20260904085824 | 82 | 202 | 2.0 | 3.0 | 0.00 | 0.00 | 0.00 | 94 | 1007.1 |
| 20260904085319 | 83 | 214 | 1.0 | 1.0 | 0.00 | 0.00 | 0.00 | 94 | 1007.0 |
| 20260904084814 | 83 | 219 | 0.0 | 0.0 | 0.00 | 0.00 | 0.00 | 94 | 1007.0 |
| 20260904084310 | 83 | 211 | 0.0 | 1.0 | 0.00 | 0.00 | 0.00 | 94 | 1007.0 |
| 20260904083806 | 83 | 132 | 0.0 | 0.0 | 0.00 | 0.00 | 0.00 | 94 | 1007.2 |
| 20260904083302 | 83 | 210 | 0.0 | 0.0 | 0.00 | 0.00 | 0.00 | 94 | 1006.9 |
| 20260904082757 | 83 | 218 | 0.0 | 0.0 | 0.00 | 0.00 | 0.00 | 94 | 1006.9 |
| 20260904082252 | 83 | 178 | 0.0 | 0.0 | 0.00 | 0.00 | 0.00 | 94 | 1007.0 |
| 20260904081747 | 83 | 175 | 0.0 | 0.0 | 0.00 | 0.00 | 0.00 | 94 | 1007.0 |
| 20260904081242 | 83 | 189 | 0.0 | 0.0 | 0.00 | 0.00 | 0.00 | 94 | 1006.9 |
| 20260904080738 | 83 | 214 | 0.0 | 0.0 | 0.00 | 0.00 | 0.00 | 94 | 1007.0 |
| 20260904080234 | 83 | 188 | 0.0 | 1.0 | 0.00 | 0.00 | 0.00 | 94 | 1007.0 |
| 20260904075730 | 83 | 213 | 0.0 | 0.0 | 0.00 | 0.00 | 0.00 | 93 | 1006.8 |
| 20260904075224 | 83 | 224 | 2.0 | 2.0 | 0.00 | 0.00 | 0.00 | 93 | 1006.9 |
| 20260904074718 | 83 | 178 | 0.0 | 0.0 | 0.00 | 0.00 | 0.00 | 93 | 1006.9 |
| 20260904074213 | 83 | 192 | 0.0 | 0.0 | 0.00 | 0.00 | 0.00 | 93 | 1006.9 |
| 20260904073708 | 83 | 205 | 1.0 | 1.0 | 0.00 | 0.00 | 0.00 | 93 | 1006.9 |
| 20260904073204 | 83 | 208 | 0.0 | 1.0 | 0.00 | 0.00 | 0.00 | 92 | 1007.1 |
| 20260904072659 | 83 | 190 | 2.0 | 2.0 | 0.00 | 0.00 | 0.00 | 92 | 1007.0 |
| 20260904072154 | 83 | 184 | 2.0 | 3.0 | 0.00 | 0.00 | 0.00 | 92 | 1007.3 |
| 20260904071650 | 83 | 206 | 0.0 | 0.0 | 0.00 | 0.00 | 0.00 | 92 | 1007.1 |
| 20260904071145 | 84 | 199 | 0.0 | 0.0 | 0.00 | 0.00 | 0.00 | 92 | 1007.2 |
| 20260904070644 | 84 | 204 | 1.0 | 2.0 | 0.00 | 0.00 | 0.00 | 92 | 1007.2 |
| 20260904070144 | 84 | 175 | 1.0 | 2.0 | 0.00 | 0.00 | 0.00 | 92 | 1007.2 |
| 20260904065638 | 84 | 215 | 0.0 | 0.0 | 0.00 | 0.00 | 0.00 | 91 | 1007.3 |
| 20260904065136 | 84 | 216 | 0.0 | 0.0 | 0.00 | 0.00 | 0.00 | 91 | 1007.4 |
| 20260904064630 | 84 | 190 | 1.0 | 1.0 | 0.00 | 0.00 | 0.00 | 91 | 1007.3 |
| 20260904064125 | 84 | 214 | 0.0 | 0.0 | 0.00 | 0.00 | 0.00 | 91 | 1007.1 |
| 20260904063621 | 84 | 152 | 2.0 | 3.0 | 0.00 | 0.00 | 0.00 | 91 | 1007.1 |
| 20260904063116 | 84 | 108 | 2.0 | 3.0 | 0.00 | 0.00 | 0.00 | 91 | 1007.0 |
| 20260904062613 | 84 | 214 | 0.0 | 0.0 | 0.00 | 0.00 | 0.00 | 91 | 1007.2 |
| 20260904062108 | 84 | 200 | 0.0 | 1.0 | 0.00 | 0.00 | 0.00 | 91 | 1007.2 |
| 20260904061603 | 84 | 204 | 0.0 | 1.0 | 0.00 | 0.00 | 0.00 | 91 | 1007.2 |
| 20260904061100 | 84 | 210 | 1.0 | 1.0 | 0.00 | 0.00 | 0.00 | 91 | 1007.3 |
| 20260904060555 | 84 | 211 | 0.0 | 0.0 | 0.00 | 0.00 | 0.00 | 91 | 1007.3 |
| 20260904060051 | 84 | 171 | 2.0 | 3.0 | 0.00 | 0.00 | 0.00 | 91 | 1007.5 |
| 20260904055546 | 84 | 201 | 1.0 | 6.0 | 0.00 | 0.00 | 0.00 | 91 | 1007.4 |
| 20260904055041 | 84 | 207 | 0.0 | 0.0 | 0.00 | 0.00 | 0.00 | 91 | 1007.4 |
| 20260904054537 | 84 | 196 | 0.0 | 1.0 | 0.00 | 0.00 | 0.00 | 91 | 1007.6 |
| 20260904054033 | 84 | 214 | 0.0 | 0.0 | 0.00 | 0.00 | 0.00 | 91 | 1007.4 |
| 20260904053532 | 84 | 207 | 0.0 | 1.0 | 0.00 | 0.00 | 0.00 | 90 | 1007.5 |
| 20260904053028 | 84 | 189 | 3.0 | 6.0 | 0.00 | 0.00 | 0.00 | 90 | 1007.5 |
| 20260904052524 | 84 | 207 | 0.0 | 1.0 | 0.00 | 0.00 | 0.00 | 90 | 1007.5 |
| 20260904052020 | 84 | 197 | 1.0 | 1.0 | 0.00 | 0.00 | 0.00 | 90 | 1007.5 |
| 20260904051517 | 84 | 209 | 3.0 | 6.0 | 0.00 | 0.00 | 0.00 | 90 | 1007.6 |
| 20260904051015 | 84 | 231 | 0.0 | 0.0 | 0.00 | 0.00 | 0.00 | 90 | 1007.5 |
| 20260904050512 | 84 | 188 | 1.0 | 2.0 | 0.00 | 0.00 | 0.00 | 90 | 1007.6 |
| 20260904050008 | 84 | 212 | 1.0 | 1.0 | 0.00 | 0.00 | 0.00 | 90 | 1007.4 |
| 20260904045502 | 85 | 240 | 1.0 | 1.0 | 0.00 | 0.00 | 0.00 | 89 | 1007.3 |
| 20260904044956 | 85 | 228 | 2.0 | 3.0 | 0.00 | 0.00 | 0.00 | 89 | 1007.4 |
| 20260904044453 | 85 | 197 | 3.0 | 6.0 | 0.00 | 0.00 | 0.00 | 89 | 1007.3 |
| 20260904043949 | 85 | 171 | 2.0 | 3.0 | 0.00 | 0.00 | 0.00 | 89 | 1007.3 |
| 20260904043445 | 85 | 210 | 3.0 | 4.0 | 0.00 | 0.00 | 0.00 | 89 | 1007.4 |
| 20260904042940 | 85 | 162 | 3.0 | 4.0 | 0.00 | 0.00 | 0.00 | 89 | 1007.3 |
| 20260904042437 | 85 | 180 | 1.0 | 1.0 | 0.00 | 0.00 | 0.00 | 88 | 1007.5 |
| 20260904041931 | 85 | 203 | 3.0 | 6.0 | 0.00 | 0.00 | 0.00 | 88 | 1007.5 |
| 20260904041428 | 85 | 192 | 2.0 | 3.0 | 0.00 | 0.00 | 0.00 | 88 | 1007.5 |
| 20260904040924 | 85 | 180 | 2.0 | 4.0 | 0.00 | 0.00 | 0.00 | 87 | 1007.4 |
| 20260904040423 | 85 | 212 | 2.0 | 3.0 | 0.00 | 0.00 | 0.00 | 87 | 1007.5 |
| 20260904035920 | 85 | 192 | 1.0 | 1.0 | 0.00 | 0.00 | 0.00 | 87 | 1007.6 |
| 20260904035415 | 85 | 205 | 0.0 | 1.0 | 0.00 | 0.00 | 0.00 | 87 | 1007.5 |
| 20260904034914 | 85 | 209 | 2.0 | 3.0 | 0.00 | 0.00 | 0.00 | 87 | 1007.4 |
| 20260904034410 | 85 | 186 | 2.0 | 2.0 | 0.00 | 0.00 | 0.00 | 87 | 1007.7 |
| 20260904033905 | 85 | 129 | 2.0 | 2.0 | 0.00 | 0.00 | 0.00 | 86 | 1007.3 |
| 20260904033402 | 85 | 204 | 0.0 | 0.0 | 0.00 | 0.00 | 0.00 | 86 | 1007.1 |
| 20260904032857 | 85 | 193 | 1.0 | 2.0 | 0.00 | 0.00 | 0.00 | 86 | 1007.1 |
| 20260904032352 | 85 | 145 | 1.0 | 1.0 | 0.00 | 0.00 | 0.00 | 86 | 1007.2 |
| 20260904031845 | 85 | 203 | 2.0 | 2.0 | 0.00 | 0.00 | 0.00 | 86 | 1007.1 |
| 20260904031336 | 85 | 200 | 3.0 | 3.0 | 0.00 | 0.00 | 0.00 | 86 | 1007.2 |
| 20260904030832 | 85 | 211 | 0.0 | 0.0 | 0.00 | 0.00 | 0.00 | 85 | 1007.2 |
| 20260904030328 | 85 | 221 | 4.0 | 4.0 | 0.00 | 0.00 | 0.00 | 85 | 1007.2 |
| 20260904025823 | 86 | 180 | 1.0 | 2.0 | 0.00 | 0.00 | 0.00 | 85 | 1007.1 |
| 20260904025319 | 86 | 208 | 2.0 | 3.0 | 0.00 | 0.00 | 0.00 | 85 | 1006.9 |
| 20260904024819 | 86 | 164 | 2.0 | 3.0 | 0.00 | 0.00 | 0.00 | 85 | 1007.0 |
| 20260904024314 | 86 | 199 | 4.0 | 4.0 | 0.00 | 0.00 | 0.00 | 84 | 1007.2 |
| 20260904023811 | 86 | 186 | 2.0 | 4.0 | 0.00 | 0.00 | 0.00 | 84 | 1006.8 |
| 20260904023307 | 86 | 260 | 0.0 | 1.0 | 0.00 | 0.00 | 0.00 | 84 | 1006.7 |
| 20260904022805 | 86 | 173 | 1.0 | 2.0 | 0.00 | 0.00 | 0.00 | 84 | 1007.0 |
| 20260904022305 | 86 | 181 | 3.0 | 4.0 | 0.00 | 0.00 | 0.00 | 83 | 1006.6 |
| 20260904021759 | 86 | 69 | 2.0 | 2.0 | 0.00 | 0.00 | 0.00 | 83 | 1006.7 |
| 20260904021253 | 86 | 157 | 4.0 | 6.0 | 0.00 | 0.00 | 0.00 | 83 | 1006.5 |
| 20260904020749 | 86 | 201 | 2.0 | 4.0 | 0.00 | 0.00 | 0.00 | 84 | 1006.7 |
| 20260904020248 | 86 | 219 | 1.0 | 1.0 | 0.00 | 0.00 | 0.00 | 85 | 1006.9 |
| 20260904015747 | 86 | 196 | 3.0 | 3.0 | 0.00 | 0.00 | 0.00 | 85 | 1006.7 |
| 20260904015243 | 86 | 198 | 2.0 | 3.0 | 0.00 | 0.00 | 0.00 | 85 | 1006.4 |
| 20260904014741 | 86 | 215 | 3.0 | 4.0 | 0.00 | 0.00 | 0.00 | 85 | 1006.3 |
| 20260904014236 | 86 | 114 | 2.0 | 3.0 | 0.00 | 0.00 | 0.00 | 84 | 1006.2 |
| 20260904013732 | 86 | 214 | 1.0 | 1.0 | 0.00 | 0.00 | 0.00 | 84 | 1006.3 |
| 20260904013228 | 86 | 212 | 2.0 | 4.0 | 0.00 | 0.00 | 0.00 | 85 | 1006.4 |
| 20260904012724 | 86 | 175 | 4.0 | 7.0 | 0.00 | 0.00 | 0.00 | 84 | 1006.3 |
| 20260904012223 | 86 | 125 | 2.0 | 2.0 | 0.00 | 0.00 | 0.00 | 84 | 1006.1 |
| 20260904011722 | 86 | 184 | 3.0 | 4.0 | 0.00 | 0.00 | 0.00 | 84 | 1006.1 |
| 20260904011218 | 86 | 241 | 1.0 | 2.0 | 0.00 | 0.00 | 0.00 | 83 | 1006.2 |
| 20260904010713 | 86 | 189 | 2.0 | 2.0 | 0.00 | 0.00 | 0.00 | 83 | 1006.0 |
| 20260904010210 | 86 | 232 | 4.0 | 6.0 | 0.00 | 0.00 | 0.00 | 83 | 1006.0 |
| 20260904005705 | 86 | 305 | 1.0 | 2.0 | 0.00 | 0.00 | 0.00 | 83 | 1005.8 |
| 20260904005201 | 87 | 198 | 1.0 | 1.0 | 0.00 | 0.00 | 0.00 | 82 | 1006.0 |
| 20260904004701 | 87 | 216 | 1.0 | 1.0 | 0.00 | 0.00 | 0.00 | 82 | 1006.0 |
| 20260904004200 | 87 | 218 | 4.0 | 7.0 | 0.00 | 0.00 | 0.00 | 82 | 1005.9 |
| 20260904003651 | 87 | 200 | 3.0 | 6.0 | 0.00 | 0.00 | 0.00 | 81 | 1005.9 |
| 20260904003147 | 87 | 165 | 6.0 | 8.0 | 0.00 | 0.00 | 0.00 | 81 | 1006.1 |
| 20260904002643 | 87 | 163 | 3.0 | 4.0 | 0.00 | 0.00 | 0.00 | 81 | 1006.3 |
| 20260904002138 | 87 | 220 | 4.0 | 6.0 | 0.00 | 0.00 | 0.00 | 81 | 1005.9 |
| 20260904001633 | 87 | 68 | 3.0 | 9.0 | 0.00 | 0.00 | 0.00 | 80 | 1006.3 |
| 20260904001131 | 88 | 205 | 2.0 | 3.0 | 0.00 | 0.00 | 0.00 | 80 | 1006.0 |
| 20260904000627 | 88 | 201 | 1.0 | 2.0 | 0.00 | 0.00 | 0.00 | 80 | 1006.2 |
| 20260904000123 | 88 | 204 | 3.0 | 3.0 | 0.00 | 0.00 | 0.00 | 80 | 1005.9 |
| 20260903235622 | 88 | 223 | 1.0 | 2.0 | 0.00 | 0.00 | 0.00 | 79 | 1006.1 |
| 20260903235119 | 88 | 179 | 5.0 | 10.0 | 0.00 | 0.00 | 0.00 | 79 | 1006.0 |
| 20260903234613 | 88 | 179 | 4.0 | 4.0 | 0.00 | 0.00 | 0.00 | 79 | 1005.8 |
| 20260903234109 | 88 | 211 | 1.0 | 2.0 | 0.00 | 0.00 | 0.00 | 77 | 1006.0 |
| 20260903233605 | 89 | 186 | 2.0 | 4.0 | 0.00 | 0.00 | 0.00 | 77 | 1006.0 |
| 20260903233101 | 89 | 179 | 2.0 | 3.0 | 0.00 | 0.00 | 0.00 | 76 | 1005.7 |
| 20260903232555 | 89 | 168 | 4.0 | 6.0 | 0.00 | 0.00 | 0.00 | 77 | 1005.6 |
| 20260903232051 | 89 | 243 | 2.0 | 2.0 | 0.00 | 0.00 | 0.00 | 76 | 1005.9 |
| 20260903231545 | 90 | 156 | 1.0 | 2.0 | 0.00 | 0.00 | 0.00 | 75 | 1005.8 |
| 20260903231039 | 90 | 213 | 3.0 | 4.0 | 0.00 | 0.00 | 0.00 | 74 | 1005.9 |
| 20260903230536 | 90 | 218 | 3.0 | 4.0 | 0.00 | 0.00 | 0.00 | 77 | 1005.6 |
| 20260903230034 | 90 | 244 | 4.0 | 6.0 | 0.00 | 0.00 | 0.00 | 75 | 1005.6 |
| 20260903225532 | 90 | 215 | 1.0 | 1.0 | 0.00 | 0.00 | 0.00 | 74 | 1005.6 |
| 20260903225028 | 91 | 220 | 2.0 | 3.0 | 0.00 | 0.00 | 0.00 | 74 | 1005.5 |
| 20260903224524 | 91 | 188 | 2.0 | 2.0 | 0.00 | 0.00 | 0.00 | 74 | 1005.4 |
| 20260903224020 | 90 | 229 | 2.0 | 3.0 | 0.00 | 0.00 | 0.00 | 75 | 1005.6 |
| 20260903223519 | 90 | 217 | 2.0 | 3.0 | 0.00 | 0.00 | 0.00 | 74 | 1005.7 |
| 20260903223018 | 90 | 205 | 1.0 | 2.0 | 0.00 | 0.00 | 0.00 | 74 | 1005.7 |
| 20260903222513 | 91 | 198 | 1.0 | 1.0 | 0.00 | 0.00 | 0.00 | 73 | 1005.5 |
| 20260903222012 | 91 | 191 | 3.0 | 6.0 | 0.00 | 0.00 | 0.00 | 73 | 1005.5 |
| 20260903221508 | 91 | 265 | 2.0 | 6.0 | 0.00 | 0.00 | 0.00 | 71 | 1005.4 |
| 20260903221004 | 91 | 231 | 2.0 | 2.0 | 0.00 | 0.00 | 0.00 | 71 | 1005.6 |
| 20260903220459 | 91 | 212 | 4.0 | 6.0 | 0.00 | 0.00 | 0.00 | 72 | 1005.6 |
| 20260903215956 | 91 | 64 | 2.0 | 3.0 | 0.00 | 0.00 | 0.00 | 72 | 1005.4 |
| 20260903215453 | 91 | 190 | 2.0 | 2.0 | 0.00 | 0.00 | 0.00 | 72 | 1005.5 |
| 20260903214950 | 92 | 235 | 3.0 | 3.0 | 0.00 | 0.00 | 0.00 | 73 | 1005.5 |
| 20260903214446 | 91 | 241 | 6.0 | 10.0 | 0.00 | 0.00 | 0.00 | 73 | 1005.5 |
| 20260903213941 | 92 | 273 | 1.0 | 2.0 | 0.00 | 0.00 | 0.00 | 73 | 1005.5 |
| 20260903213437 | 91 | 105 | 4.0 | 7.0 | 0.00 | 0.00 | 0.00 | 74 | 1005.8 |
| 20260903212932 | 92 | 197 | 5.0 | 8.0 | 0.00 | 0.00 | 0.00 | 73 | 1005.7 |
| 20260903212427 | 91 | 358 | 4.0 | 4.0 | 0.00 | 0.00 | 0.00 | 74 | 1005.6 |
| 20260903211922 | 92 | 234 | 3.0 | 4.0 | 0.00 | 0.00 | 0.00 | 74 | 1005.7 |
| 20260903211418 | 93 | 212 | 1.0 | 2.0 | 0.00 | 0.00 | 0.00 | 72 | 1005.7 |
| 20260903210914 | 93 | 33 | 5.0 | 11.0 | 0.00 | 0.00 | 0.00 | 72 | 1005.8 |
| 20260903210414 | 93 | 207 | 1.0 | 2.0 | 0.00 | 0.00 | 0.00 | 71 | 1005.7 |
| 20260903205909 | 94 | 207 | 2.0 | 3.0 | 0.00 | 0.00 | 0.00 | 70 | 1005.9 |
| 20260903205409 | 94 | 335 | 4.0 | 4.0 | 0.00 | 0.00 | 0.00 | 67 | 1005.7 |
| 20260903204903 | 94 | 188 | 3.0 | 6.0 | 0.00 | 0.00 | 0.00 | 67 | 1005.8 |
| 20260903204359 | 94 | 140 | 2.0 | 3.0 | 0.00 | 0.00 | 0.00 | 68 | 1005.9 |
| 20260903203855 | 95 | 202 | 3.0 | 4.0 | 0.00 | 0.00 | 0.00 | 65 | 1005.8 |
| 20260903203350 | 95 | 227 | 2.0 | 3.0 | 0.00 | 0.00 | 0.00 | 65 | 1006.0 |
| 20260903202849 | 95 | 223 | 2.0 | 3.0 | 0.00 | 0.00 | 0.00 | 66 | 1005.9 |
| 20260903202346 | 94 | 209 | 2.0 | 3.0 | 0.00 | 0.00 | 0.00 | 66 | 1006.0 |
| 20260903201845 | 95 | 201 | 5.0 | 7.0 | 0.00 | 0.00 | 0.00 | 64 | 1006.1 |
| 20260903201341 | 95 | 248 | 1.0 | 2.0 | 0.00 | 0.00 | 0.00 | 64 | 1005.7 |
| 20260903200840 | 96 | 250 | 2.0 | 4.0 | 0.00 | 0.00 | 0.00 | 64 | 1006.0 |
| 20260903200335 | 95 | 172 | 3.0 | 3.0 | 0.00 | 0.00 | 0.00 | 61 | 1006.0 |
| 20260903195830 | 95 | 88 | 5.0 | 8.0 | 0.00 | 0.00 | 0.00 | 63 | 1006.0 |
| 20260903195326 | 96 | 221 | 4.0 | 6.0 | 0.00 | 0.00 | 0.00 | 63 | 1006.1 |
| 20260903194821 | 96 | 229 | 2.0 | 3.0 | 0.00 | 0.00 | 0.00 | 61 | 1006.2 |
| 20260903194316 | 95 | 218 | 3.0 | 3.0 | 0.00 | 0.00 | 0.00 | 64 | 1006.2 |
| 20260903193812 | 96 | 194 | 2.0 | 2.0 | 0.00 | 0.00 | 0.00 | 62 | 1006.4 |
| 20260903193308 | 95 | 191 | 3.0 | 3.0 | 0.00 | 0.00 | 0.00 | 61 | 1006.4 |
| 20260903192803 | 95 | 232 | 2.0 | 4.0 | 0.00 | 0.00 | 0.00 | 62 | 1006.4 |
| 20260903192259 | 96 | 203 | 2.0 | 3.0 | 0.00 | 0.00 | 0.00 | 60 | 1006.4 |
| 20260903191755 | 97 | 239 | 2.0 | 3.0 | 0.00 | 0.00 | 0.00 | 59 | 1006.5 |
| 20260903191250 | 96 | 206 | 2.0 | 3.0 | 0.00 | 0.00 | 0.00 | 61 | 1006.6 |
| 20260903190745 | 96 | 201 | 3.0 | 6.0 | 0.00 | 0.00 | 0.00 | 58 | 1006.6 |
| 20260903190245 | 97 | 225 | 1.0 | 2.0 | 0.00 | 0.00 | 0.00 | 59 | 1006.5 |
| 20260903185740 | 97 | 247 | 1.0 | 2.0 | 0.00 | 0.00 | 0.00 | 58 | 1006.7 |
| 20260903185239 | 97 | 192 | 2.0 | 3.0 | 0.00 | 0.00 | 0.00 | 60 | 1006.7 |
| 20260903184736 | 97 | 175 | 1.0 | 2.0 | 0.00 | 0.00 | 0.00 | 60 | 1006.8 |
| 20260903184231 | 96 | 223 | 1.0 | 2.0 | 0.00 | 0.00 | 0.00 | 60 | 1006.8 |
| 20260903183727 | 95 | 218 | 2.0 | 3.0 | 0.00 | 0.00 | 0.00 | 62 | 1006.9 |
| 20260903183220 | 96 | 189 | 2.0 | 2.0 | 0.00 | 0.00 | 0.00 | 61 | 1007.0 |
| 20260903182720 | 95 | 255 | 3.0 | 3.0 | 0.00 | 0.00 | 0.00 | 62 | 1007.0 |
| 20260903182215 | 96 | 206 | 2.0 | 2.0 | 0.00 | 0.00 | 0.00 | 61 | 1007.2 |
| 20260903181714 | 96 | 205 | 2.0 | 2.0 | 0.00 | 0.00 | 0.00 | 61 | 1007.2 |
| 20260903181209 | 95 | 120 | 3.0 | 6.0 | 0.00 | 0.00 | 0.00 | 62 | 1007.2 |
| 20260903180704 | 95 | 178 | 2.0 | 4.0 | 0.00 | 0.00 | 0.00 | 63 | 1007.2 |
| 20260903180158 | 96 | 161 | 3.0 | 4.0 | 0.00 | 0.00 | 0.00 | 63 | 1007.3 |
| 20260903175657 | 97 | 215 | 2.0 | 3.0 | 0.00 | 0.00 | 0.00 | 61 | 1007.4 |
| 20260903175157 | 96 | 208 | 2.0 | 2.0 | 0.00 | 0.00 | 0.00 | 60 | 1007.6 |
| 20260903174651 | 96 | 137 | 3.0 | 6.0 | 0.00 | 0.00 | 0.00 | 62 | 1007.5 |
| 20260903174146 | 96 | 135 | 6.0 | 9.0 | 0.00 | 0.00 | 0.00 | 63 | 1007.7 |
| 20260903173641 | 96 | 164 | 2.0 | 3.0 | 0.00 | 0.00 | 0.00 | 64 | 1007.6 |
| 20260903173138 | 96 | 164 | 2.0 | 3.0 | 0.00 | 0.00 | 0.00 | 63 | 1007.7 |
| 20260903172637 | 96 | 188 | 1.0 | 2.0 | 0.00 | 0.00 | 0.00 | 63 | 1008.1 |
| 20260903172133 | 96 | 212 | 2.0 | 3.0 | 0.00 | 0.00 | 0.00 | 63 | 1008.0 |
| 20260903171632 | 96 | 191 | 4.0 | 6.0 | 0.00 | 0.00 | 0.00 | 63 | 1008.1 |
| 20260903171129 | 96 | 201 | 6.0 | 8.0 | 0.00 | 0.00 | 0.00 | 62 | 1008.1 |
| 20260903170627 | 95 | 184 | 1.0 | 1.0 | 0.00 | 0.00 | 0.00 | 65 | 1008.0 |
| 20260903170123 | 96 | 195 | 2.0 | 2.0 | 0.00 | 0.00 | 0.00 | 63 | 1008.1 |
| 20260903165620 | 94 | 235 | 0.0 | 0.0 | 0.00 | 0.00 | 0.00 | 65 | 1008.2 |
| 20260903165116 | 96 | 81 | 5.0 | 8.0 | 0.00 | 0.00 | 0.00 | 65 | 1008.2 |
| 20260903164610 | 95 | 208 | 2.0 | 3.0 | 0.00 | 0.00 | 0.00 | 65 | 1008.1 |
| 20260903164106 | 95 | 206 | 0.0 | 1.0 | 0.00 | 0.00 | 0.00 | 65 | 1008.0 |
| 20260903163601 | 95 | 218 | 1.0 | 2.0 | 0.00 | 0.00 | 0.00 | 65 | 1008.1 |
| 20260903163057 | 95 | 191 | 2.0 | 4.0 | 0.00 | 0.00 | 0.00 | 65 | 1008.0 |
| 20260903162553 | 95 | 205 | 0.0 | 1.0 | 0.00 | 0.00 | 0.00 | 66 | 1008.3 |
| 20260903162049 | 94 | 194 | 0.0 | 1.0 | 0.00 | 0.00 | 0.00 | 68 | 1008.0 |
| 20260903161544 | 94 | 191 | 3.0 | 4.0 | 0.00 | 0.00 | 0.00 | 67 | 1008.2 |
| 20260903161040 | 94 | 248 | 2.0 | 3.0 | 0.00 | 0.00 | 0.00 | 67 | 1008.3 |
| 20260903160538 | 93 | 210 | 2.0 | 3.0 | 0.00 | 0.00 | 0.00 | 67 | 1008.3 |
| 20260903160033 | 93 | 141 | 3.0 | 4.0 | 0.00 | 0.00 | 0.00 | 70 | 1008.0 |
| 20260903155526 | 93 | 209 | 2.0 | 3.0 | 0.00 | 0.00 | 0.00 | 69 | 1008.0 |
| 20260903155022 | 92 | 213 | 1.0 | 1.0 | 0.00 | 0.00 | 0.00 | 70 | 1008.1 |
| 20260903154518 | 92 | 99 | 5.0 | 9.0 | 0.00 | 0.00 | 0.00 | 68 | 1008.3 |
| 20260903154014 | 93 | 214 | 2.0 | 2.0 | 0.00 | 0.00 | 0.00 | 67 | 1008.1 |
| 20260903153509 | 92 | 195 | 1.0 | 2.0 | 0.00 | 0.00 | 0.00 | 71 | 1008.2 |
| 20260903153004 | 91 | 181 | 3.0 | 4.0 | 0.00 | 0.00 | 0.00 | 70 | 1007.9 |
| 20260903152500 | 90 | 214 | 4.0 | 7.0 | 0.00 | 0.00 | 0.00 | 72 | 1008.1 |
| 20260903151956 | 91 | 184 | 6.0 | 10.0 | 0.00 | 0.00 | 0.00 | 72 | 1008.1 |
| 20260903151450 | 91 | 216 | 1.0 | 1.0 | 0.00 | 0.00 | 0.00 | 73 | 1008.2 |
| 20260903150946 | 91 | 138 | 6.0 | 10.0 | 0.00 | 0.00 | 0.00 | 72 | 1007.9 |
| 20260903150445 | 90 | 164 | 5.0 | 6.0 | 0.00 | 0.00 | 0.00 | 73 | 1008.1 |
| 20260903145940 | 90 | 169 | 3.0 | 3.0 | 0.00 | 0.00 | 0.00 | 75 | 1008.2 |
| 20260903145435 | 90 | 220 | 2.0 | 4.0 | 0.00 | 0.00 | 0.00 | 75 | 1008.1 |
| 20260903144930 | 90 | 2 | 3.0 | 6.0 | 0.00 | 0.00 | 0.00 | 76 | 1008.0 |
| 20260903144430 | 89 | 160 | 5.0 | 7.0 | 0.00 | 0.00 | 0.00 | 77 | 1008.0 |